Voltar ao catálogo

STARLINK-31671

AtivoComunicaçõesVLEO
NORAD 59516·PAYLOAD·🇺🇸 United States

Lançado Apr 17, 2024 de Cape Canaveral Space Force Station

Loading…

Próximas Passagens (próximas 24 horas)

TLE

AtualizadoSource: CelesTrak SupGP

Época: Sep 14, 2026, 20:52 UTC

1 59516C 24073F   26257.86993056 -.00018700  00000+0 -67742-3 0  2573
2 59516  43.0034 329.8596 0001496 273.6887 155.7466 15.27583235    11

Acompanhe STARLINK-31671 em tempo real com AllMySat

Download on the App Store